Home > Weather > Uyo > Past weeks

Flag for Nigeria Weather for the Past 2 Weeks in Uyo, Nigeria

Now
81 °F

Passing clouds.


Feels Like: 85 °F
Forecast: 77 / 96 °F
Wind: 8 mph from Southwest

Location: Malabo/Fernando Poo

Current Time: Feb 14, 2016 at 9:03:10 PM

Latest Report: Feb 14, 2016 at 8:00 PM


Visibility: 5 mi

Pressure: 29.83 "Hg

Humidity: 79%

Dew point: 73 °F

Location of UyoLocation

Historic Weather in Uyo — Graph

°F

Uyo Temperature Yesterday

Maximum temperature yesterday: 88 °F (at 2:00 PM)
Minimum temperature yesterday: 75 °F (at 7:00 AM)
Average temperature yesterday: 82 °F

High & Low Weather Summary for the Past Weeks

 TemperatureHumidityPressure
High90 °F (Feb 4, 2:00 PM)94% (Feb 2, 1:00 AM)30.01 "Hg (Feb 2, 1:00 AM)
Low70 °F (Feb 2, 1:00 AM)43% (Jan 31, 11:00 AM)29.77 "Hg (Feb 2, 3:00 PM)
Average81 °F76%29.89 "Hg
* Reported Jan 30 7:00 PM — Feb 14 7:00 PM, Uyo, Weather by CustomWeather, © 2016

Note: Actual official high and low records may vary slightly from our data, if they occured in-between our weather recording intervals... More about our weather records

Advertising

Uyo Weather History for the Previous 24 Hours

 ConditionsComfort  
Time TempWeatherWind HumidityBarometerVisibility
7:00 PM
Sun, Feb 14
81 °FPassing clouds.8 mph79%29.83 "Hg5 mi
6:00 PM84 °FPassing clouds.8 mph74%29.80 "Hg6 mi
5:00 PM84 °FPassing clouds.8 mph74%29.80 "Hg6 mi
4:00 PM86 °FPassing clouds.8 mph66%29.80 "Hg6 mi
3:00 PM88 °FPassing clouds.6 mph55%29.83 "Hg5 mi
2:00 PM86 °FPassing clouds.6 mph62%29.86 "HgN/A
1:00 PM86 °FPassing clouds.3 mph59%29.89 "HgN/A
12:00 PM84 °FPassing clouds.5 mph70%29.92 "HgN/A
11:00 AM82 °FPassing clouds.5 mph74%29.95 "HgN/A
10:00 AM82 °FPassing clouds.3 mph74%29.95 "Hg5 mi
9:00 AM79 °FPassing clouds.6 mph84%29.95 "Hg5 mi
8:00 AM79 °FPartly sunny.8 mph84%29.95 "Hg4 mi
7:00 AM79 °FPassing clouds.10 mph79%29.92 "Hg4 mi
6:00 AM81 °FPassing clouds.10 mph79%29.89 "Hg4 mi
5:00 AM79 °FPassing clouds.6 mph84%29.89 "Hg4 mi
4:00 AM79 °FPassing clouds.7 mph84%29.89 "Hg4 mi
3:00 AM81 °FPassing clouds.7 mph84%29.89 "Hg4 mi
2:00 AM79 °FPassing clouds.8 mph89%29.89 "Hg4 mi
1:00 AM79 °FPassing clouds.8 mph84%29.89 "Hg4 mi
12:00 AM81 °FPassing clouds.8 mph79%29.92 "Hg4 mi
11:00 PM
Sat, Feb 13
81 °FPassing clouds.8 mph79%29.92 "Hg4 mi
10:00 PM81 °FPassing clouds.7 mph79%29.92 "Hg4 mi
9:00 PM81 °FPassing clouds.8 mph79%29.89 "Hg4 mi
Weather by CustomWeather, © 2016

See weather overviewHow to use our weather pages